Location: Eyeline Observatory
(43.2182°N, 78.8632°W)
Time: 01:36:51
(UTC-05:00)

Envisat - Pass Details

Date: 13 October 2017
Orbit: 764 x 766 km, 98.2° (Epoch: 14 December)

Event Time Altitude Azimuth Distance (km) Brightness Sun altitude
Exits shadow 22:37:18 12° 284° (WNW) 2,184 5.9 -42.9°
Drops below altitude 10° 22:38:22 10° 296° (WNW) 2,309 6.1 -43.0°
Sets 22:42:14 0° 326° (NW) 3,243 7.0 -43.6°
